sat.trackr.live / text

‹ back to catalog

STARLINK-35575

NORAD 66165 · 2025-240V

PAYLOAD ACTIVE UNKNOWN

§ Identity

Operator
Country
US
Launch date
2025-10-25
Launch site
AFWTR
Launch vehicle
Mass (kg)
RCS (m²)

Purposes: comms

External: N2YO · Heavens-Above · Gunter

§ Orbital elements

Epoch: 2026-09-20T13:29:12.206976Z

Period
93.85 min
Inclination
53.1580°
Eccentricity
0.0001739
Mean motion
15.34411168 rev/d
Perigee alt
461.5 km
Apogee alt
463.9 km
Semi-major
6,840.8 km
B*
3.7037e-4
RAAN
233.4302°
Arg perigee
92.1774°
Mean anomaly
267.9427°
Rev number
5,188

§ Raw data

STARLINK-355751 66165U 25240V   26263.56194684  .00012162  00000+0  37037-3 0  99932 66165  53.1580 233.4302 0001739  92.1774 267.9427 15.34411168 51888

JSON: /api/v1/satellites/66165 · /tle

For live sub-satellite position, see the globe view (requires WebGL).

§ Visibility from observer

Set your observer location to see the next 7 days of passes ≥ 10°. The values pass through the URL so the page stays shareable.

No JS? Fill the form by hand. The geolocation button needs JavaScript.